Tracking 19576 objects as of 17-Feb-2019
HD Live streaming from Space Station
objects crossing your sky now

SOICAL (CONE)

Track SOICAL (CONE) now!
10-day predictions
SOICAL (CONE) is classified as:


NORAD ID: 4132
Int'l Code: 1969-082K
Perigee: 809.0 km
Apogee: 825.5 km
Inclination: 70.0 °
Period: 101.1 minutes
Semi major axis: 7188 km
RCS: 0.2856 m2 (medium)
Launch date: September 30, 1969
Source: United States (US)
Launch site: AIR FORCE WESTERN TEST RANGE (AFWTR)
aabbcc
Your satellite tracking list
Your tracking list is empty




NASA's NSSDC Master Catalog

Two Line Element Set (TLE):
1  4132U 69082K   19047.82689309 +.00000207 +00000-0 +11378-3 0  9993
2  4132 069.9959 175.7793 0011474 215.7504 144.2849 14.24510701539058
Source of the keplerian elements: AFSPC